Date String (YYYY-MM-DD hh:mm:ss) UTC,Instrument flags,absolute air pressure of the measurement (hPa),sample flow rate (lpm),inlet stack bypass flow (lpm),air temperature of the measurement (°C),ambient temperature measured by the external sensor (°C),aerosol sample conditioner tube jacket temperature (°C),OPC LED temperature (°C),internal box temperature (°C),relative humidity of the measurement (%),span deviation,mass concentration of particles derived from Lorenz-Mie calculation of OPC scattering (μg/m³),mass concentration of particles derived from Lorenz-Mie calculation of OPC scattering (μg/m³),mass concentration of particles derived from Lorenz-Mie calculation of OPC scattering (μg/m³)
DateTimeUTC,F1_M11,P_M11,Q1_M11,Q2_M11,T1_M11,T2_M11,T3_M11,T4_M11,T5_M11,U1_M11,ZSPAN_M11,X0_M11,X2_M11,X1_M11
2024-06-17 18:00:00,SystemResetWarning,0818.8,5.00,000.00,029.9,029.4,000.0,038.1,031.7,032.6,0001.0,0022.41,0008.48,0007.04
2024-06-17 18:01:00,SystemResetWarning,0818.8,4.99,000.00,030.0,029.5,000.0,038.1,031.8,032.9,0000.8,0022.40,0008.52,0007.04
2024-06-17 18:02:00,SystemResetWarning,0818.9,4.99,000.00,030.0,029.4,000.0,038.2,031.7,033.3,0000.8,0022.23,0008.53,0007.03
2024-06-17 18:03:00,SystemResetWarning,0818.8,5.00,000.00,029.8,027.7,000.0,038.2,031.0,033.9,0000.6,0022.88,0008.57,0007.02
2024-06-17 18:04:00,SystemResetWarning,0818.7,5.01,000.00,029.4,026.3,000.0,038.2,030.2,034.5,0000.7,0022.85,0008.57,0007.02
2024-06-17 18:05:00,SystemResetWarning,0818.6,5.01,000.00,029.2,026.2,000.0,038.2,030.1,035.8,0000.6,0021.88,0008.59,0007.04
2024-06-17 18:06:00,SystemResetWarning,0818.7,5.00,000.00,029.2,026.6,000.0,038.0,030.3,036.3,0000.9,0022.50,0008.54,0007.02
2024-06-17 18:07:00,SystemResetWarning,0818.7,5.00,000.00,029.2,027.1,000.0,037.9,030.5,035.2,0000.9,0022.44,0008.57,0007.01
2024-06-17 18:08:00,SystemResetWarning,0818.7,5.00,000.00,029.2,027.5,000.0,037.9,030.8,035.7,0000.4,0023.51,0008.63,0007.02
2024-06-17 18:09:00,SystemResetWarning,0818.6,5.00,000.00,029.3,027.8,000.0,037.8,030.9,035.1,0000.8,0024.70,0008.64,0007.02
2024-06-17 18:10:00,SystemResetWarning,0818.6,5.00,000.00,029.3,028.1,000.0,037.8,031.0,035.3,0000.8,0025.47,0008.66,0007.01
2024-06-17 18:11:00,SystemResetWarning,0818.6,4.99,000.00,029.4,028.4,000.0,037.8,031.2,035.2,0000.8,0027.71,0008.62,0006.99
2024-06-17 18:12:00,SystemResetWarning,0818.5,5.00,000.00,029.4,028.6,000.0,037.8,031.3,034.4,0001.2,0028.59,0008.54,0006.98
2024-06-17 18:13:00,SystemResetWarning,0818.6,5.01,000.00,029.5,028.8,000.0,037.8,031.3,034.7,0001.4,0029.72,0008.57,0007.00
2024-06-17 18:14:00,SystemResetWarning,0818.6,5.00,000.00,029.6,028.9,000.0,037.9,031.4,034.2,0001.2,0029.06,0008.58,0007.01
2024-06-17 18:15:00,SystemResetWarning,0818.6,5.00,000.00,029.6,029.1,000.0,037.9,031.5,034.1,0000.9,0028.45,0008.54,0007.00
2024-06-17 18:16:00,SystemResetWarning,0818.6,5.00,000.00,029.7,029.2,000.0,037.9,031.5,033.8,0000.3,0028.53,0008.48,0006.99
2024-06-17 18:17:00,SystemResetWarning,0818.6,5.01,000.00,029.8,029.3,000.0,038.0,031.6,033.7,0000.2,0028.28,0008.51,0007.01
2024-06-17 18:18:00,SystemResetWarning,0818.5,4.99,000.00,029.8,029.4,000.0,038.0,031.7,033.4,-000.2,0028.20,0008.56,0007.04
2024-06-17 18:19:00,SystemResetWarning,0818.5,4.99,000.00,029.9,029.5,000.0,038.0,031.7,033.8,-000.3,0027.09,0008.44,0007.02
2024-06-17 18:20:00,SystemResetWarning,0818.5,4.99,000.00,030.0,029.6,000.0,038.1,031.8,033.7,-001.4,0026.47,0008.39,0007.01
2024-06-17 18:21:00,SystemResetWarning,0818.4,4.99,000.00,030.0,029.0,000.0,038.1,031.6,034.0,-000.1,0026.93,0008.31,0006.99
2024-06-17 18:22:00,SystemResetWarning,0818.4,5.00,000.00,029.7,026.9,000.0,038.2,030.6,034.2,0000.0,0025.33,0008.38,0006.98
2024-06-17 18:23:00,SystemResetWarning,0818.3,5.00,000.00,029.3,025.8,000.0,038.2,030.0,035.1,0000.0,0023.83,0008.49,0006.99
2024-06-17 18:24:00,SystemResetWarning,0818.3,5.01,000.00,029.1,026.2,000.0,038.1,030.1,035.4,0000.0,0022.22,0008.46,0006.97
2024-06-17 18:25:00,SystemResetWarning,0818.3,5.00,000.00,029.1,026.6,000.0,037.9,030.3,035.5,0000.0,0022.38,0008.42,0006.95
2024-06-17 18:26:00,SystemResetWarning,0818.3,4.99,000.00,029.1,027.1,000.0,037.9,030.5,035.7,0000.0,0024.87,0008.40,0006.93
2024-06-17 18:27:00,SystemResetWarning,0818.3,4.99,000.00,029.2,027.5,000.0,037.8,030.7,035.3,0000.0,0025.94,0008.38,0006.91
2024-06-17 18:28:00,SystemResetWarning,0818.3,5.00,000.00,029.2,027.8,000.0,037.8,030.9,035.2,0000.0,0025.82,0008.33,0006.89
2024-06-17 18:29:00,SystemResetWarning,0818.3,5.01,000.00,029.3,028.1,000.0,037.8,031.0,034.8,0000.0,0024.84,0008.33,0006.89
2024-06-17 18:30:00,SystemResetWarning,0818.3,5.01,000.00,029.3,028.3,000.0,037.8,031.1,034.4,0000.0,0024.38,0008.36,0006.92
2024-06-17 18:31:00,SystemResetWarning,0818.3,4.99,000.00,029.4,028.6,000.0,037.8,031.2,034.6,0001.1,0023.83,0008.37,0006.95
2024-06-17 18:32:00,SystemResetWarning,0818.3,5.00,000.00,029.5,028.7,000.0,037.8,031.3,034.5,0002.1,0022.26,0008.44,0006.96
2024-06-17 18:33:00,SystemResetWarning,0818.3,5.00,000.00,029.5,028.9,000.0,037.8,031.4,034.6,0002.2,0021.58,0008.46,0006.98
2024-06-17 18:34:00,SystemResetWarning,0818.3,5.00,000.00,029.6,029.0,000.0,037.8,031.4,034.0,0002.2,0021.08,0008.35,0006.97
2024-06-17 18:35:00,SystemResetWarning,0818.3,5.00,000.00,029.7,029.2,000.0,037.9,031.5,033.9,0002.1,0020.58,0008.28,0006.97
2024-06-17 18:36:00,SystemResetWarning,0818.3,5.00,000.00,029.7,029.3,000.0,037.9,031.6,033.7,0001.9,0020.65,0008.27,0007.00
2024-06-17 18:37:00,SystemResetWarning,0818.3,5.00,000.00,029.8,029.4,000.0,037.9,031.7,033.6,0001.7,0021.00,0008.29,0007.00
2024-06-17 18:38:00,SystemResetWarning,0818.2,5.00,000.00,029.9,029.5,000.0,038.0,031.7,033.7,0001.5,0020.49,0008.35,0007.03
2024-06-17 18:39:00,SystemResetWarning,0818.2,5.01,000.00,029.9,029.5,000.0,038.0,031.8,033.8,0001.5,0020.07,0008.36,0007.05
2024-06-17 18:40:00,SystemResetWarning,0818.2,5.00,000.00,030.0,029.3,000.0,038.1,031.6,033.4,0000.6,0020.20,0008.30,0007.04
2024-06-17 18:41:00,SystemResetWarning,0818.0,4.98,000.00,029.7,027.4,000.0,038.1,030.8,033.9,0000.2,0021.03,0008.32,0007.02
2024-06-17 18:42:00,SystemResetWarning,0818.0,5.03,000.00,029.4,026.1,000.0,038.2,030.1,034.7,0000.1,0021.15,0008.36,0006.98
2024-06-17 18:43:00,SystemResetWarning,0818.0,4.99,000.00,029.2,026.2,000.0,038.1,030.1,034.8,0000.0,0021.33,0008.40,0006.98
2024-06-17 18:44:00,SystemResetWarning,0818.0,5.00,000.00,029.1,026.6,000.0,038.0,030.2,035.4,-000.0,0021.47,0008.41,0006.98
2024-06-17 18:45:00,SystemResetWarning,0818.0,5.01,000.00,029.1,027.1,000.0,037.8,030.5,035.1,-000.1,0023.55,0008.39,0006.98
2024-06-17 18:46:00,SystemResetWarning,0818.0,5.00,000.00,029.2,027.5,000.0,037.8,030.7,035.0,0000.0,0024.96,0008.45,0006.98
2024-06-17 18:47:00,SystemResetWarning,0818.0,4.99,000.00,029.2,027.8,000.0,037.8,030.9,034.8,0000.0,0024.76,0008.48,0006.98
2024-06-17 18:48:00,SystemResetWarning,0818.0,5.00,000.00,029.3,028.1,000.0,037.8,031.0,035.0,-000.2,0023.43,0008.51,0006.98
2024-06-17 18:49:00,SystemResetWarning,0818.0,5.01,000.00,029.3,028.4,000.0,037.8,031.1,034.5,-000.2,0022.32,0008.46,0006.97
2024-06-17 18:50:00,SystemResetWarning,0818.1,5.00,000.00,029.4,028.6,000.0,037.8,031.2,034.2,0000.0,0022.54,0008.53,0006.95
2024-06-17 18:51:00,SystemResetWarning,0818.0,5.01,000.00,029.5,028.8,000.0,037.8,031.3,033.9,0000.1,0022.66,0008.61,0006.95
2024-06-17 18:52:00,SystemResetWarning,0818.0,4.99,000.00,029.5,028.9,000.0,037.8,031.4,034.0,0000.5,0022.21,0008.63,0006.96
2024-06-17 18:53:00,SystemResetWarning,0818.0,4.99,000.00,029.6,029.1,000.0,037.8,031.5,034.3,0000.9,0022.81,0008.61,0006.96
2024-06-17 18:54:00,SystemResetWarning,0818.0,4.99,000.00,029.7,029.2,000.0,037.9,031.5,034.1,0000.8,0023.16,0008.54,0006.96
2024-06-17 18:55:00,SystemResetWarning,0818.0,5.01,000.00,029.7,029.3,000.0,037.9,031.6,034.5,0000.8,0023.63,0008.47,0006.95
2024-06-17 18:56:00,SystemResetWarning,0818.0,5.00,000.00,029.8,029.4,000.0,038.0,031.7,033.4,0001.0,0023.06,0008.48,0006.92
2024-06-17 18:57:00,SystemResetWarning,0818.0,5.01,000.00,029.9,029.5,000.0,038.0,031.7,033.0,0000.6,0023.49,0008.46,0006.92
2024-06-17 18:58:00,SystemResetWarning,0818.0,4.99,000.00,029.9,029.4,000.0,038.0,031.6,033.1,0001.1,0024.94,0008.48,0006.91
2024-06-17 18:59:00,SystemResetWarning,0817.9,4.99,000.00,029.7,027.6,000.0,038.1,030.8,033.2,0001.3,0024.72,0008.48,0006.91
